Location: Dal�� Lhota
(48.7500°N, 14.0167°E)
Time: 00:51:40
(UTC+00:00)

Vanguard 3 - Pass Details

Date: 02 August 2021
Orbit: 510 x 3260 km, 33.3° (Epoch: 16 September)

Event Time Altitude Azimuth Distance (km) Brightness Sun altitude
Rises 18:59:42 0° 256° (WSW) 6,093 12.3 -3.6°
Reaches altitude 10° 19:03:28 10° 251° (WSW) 5,379 11.9 -4.1°
Maximum altitude 19:19:37 48° 184° (S) 3,848 10.4 -6.3°
Drops below altitude 10° 19:37:39 10° 119° (ESE) 5,951 10.9 -8.7°
Enters shadow 19:38:24 - 118° (ESE) 6,083 10.9 -8.8°
Sets 19:42:07 0° 114° (ESE) 6,758 - -9.2°
